| time (UTC) | temp F | wind direction | speed MPH | gust MPH | rain 1hr in | rain 24hr in | rain mn in | humidity % | barometer mb |
| 20260504020806 | 54 | 249 | 6.0 | 12.0 | 0.00 | 0.00 | 0.00 | 53 | 1013.2 |
| 20260504015306 | 54 | 253 | 9.0 | 12.0 | 0.00 | 0.00 | 0.00 | 52 | 1013.2 |
| 20260504013806 | 55 | 242 | 7.0 | 12.0 | 0.00 | 0.00 | 0.00 | 53 | 1013.1 |
| 20260504012806 | 55 | 250 | 6.0 | 10.0 | 0.00 | 0.00 | 0.00 | 52 | 1013.0 |
| 20260504011306 | 56 | 239 | 7.0 | 12.0 | 0.00 | 0.00 | 0.00 | 48 | 1012.7 |
| 20260504010306 | 56 | 238 | 6.0 | 10.0 | 0.00 | 0.00 | 0.00 | 49 | 1012.5 |
| 20260504002306 | 56 | 237 | 5.0 | 8.0 | 0.00 | 0.00 | 0.00 | 47 | 1012.2 |
| 20260504001305 | 56 | 253 | 6.0 | 10.0 | 0.00 | 0.00 | 0.00 | 49 | 1012.1 |
| 20260503235806 | 56 | 253 | 5.0 | 10.0 | 0.00 | 0.00 | 0.00 | 47 | 1011.9 |
| 20260503234805 | 57 | 260 | 7.0 | 12.0 | 0.00 | 0.00 | 0.00 | 44 | 1011.8 |
| 20260503231806 | 58 | 258 | 7.0 | 12.0 | 0.00 | 0.00 | 0.00 | 41 | 1011.5 |
| 20260503231304 | 58 | 261 | 6.0 | 12.0 | 0.00 | 0.00 | 0.00 | 41 | 1011.5 |
| 20260503230805 | 59 | 254 | 9.0 | 14.0 | 0.00 | 0.00 | 0.00 | 36 | 1011.5 |
| 20260503230305 | 59 | 265 | 6.0 | 13.0 | 0.00 | 0.00 | 0.00 | 39 | 1011.5 |
| 20260503224805 | 59 | 279 | 5.0 | 12.0 | 0.00 | 0.00 | 0.00 | 41 | 1011.5 |
| 20260503223805 | 59 | 259 | 9.0 | 14.0 | 0.00 | 0.00 | 0.00 | 40 | 1011.4 |
| 20260503223305 | 59 | 259 | 10.0 | 14.0 | 0.00 | 0.00 | 0.00 | 40 | 1011.4 |
| 20260503221805 | 59 | 273 | 9.0 | 14.0 | 0.00 | 0.00 | 0.00 | 39 | 1011.3 |
| 20260503220805 | 59 | 272 | 9.0 | 15.0 | 0.00 | 0.00 | 0.00 | 37 | 1011.2 |
| 20260503215805 | 59 | 279 | 9.0 | 18.0 | 0.00 | 0.00 | 0.00 | 39 | 1011.2 |
| 20260503214805 | 59 | 287 | 7.0 | 14.0 | 0.00 | 0.00 | 0.00 | 40 | 1011.2 |
| 20260503213806 | 59 | 273 | 9.0 | 17.0 | 0.00 | 0.00 | 0.00 | 39 | 1011.0 |
| 20260503212805 | 58 | 273 | 10.0 | 18.0 | 0.00 | 0.00 | 0.00 | 38 | 1011.0 |
| 20260503211804 | 59 | 270 | 11.0 | 18.0 | 0.00 | 0.00 | 0.00 | 40 | 1011.0 |
| 20260503211306 | 59 | 282 | 6.0 | 14.0 | 0.00 | 0.00 | 0.00 | 38 | 1011.0 |
| 20260503205305 | 59 | 258 | 9.0 | 15.0 | 0.00 | 0.00 | 0.00 | 38 | 1011.0 |
| 20260503204805 | 59 | 306 | 7.0 | 16.0 | 0.00 | 0.00 | 0.00 | 37 | 1011.0 |
| 20260503204306 | 59 | 281 | 11.0 | 21.0 | 0.00 | 0.00 | 0.00 | 39 | 1010.9 |
| 20260503203805 | 59 | 286 | 6.0 | 12.0 | 0.00 | 0.00 | 0.00 | 38 | 1010.9 |
| 20260503203306 | 59 | 274 | 7.0 | 15.0 | 0.00 | 0.00 | 0.00 | 38 | 1011.0 |
| 20260503195805 | 57 | 262 | 10.0 | 16.0 | 0.00 | 0.00 | 0.00 | 38 | 1011.0 |
| 20260503194805 | 57 | 266 | 10.0 | 20.0 | 0.00 | 0.00 | 0.00 | 41 | 1011.2 |
| 20260503194305 | 57 | 280 | 10.0 | 20.0 | 0.00 | 0.00 | 0.00 | 41 | 1011.2 |
| 20260503193806 | 57 | 286 | 7.0 | 13.0 | 0.00 | 0.00 | 0.00 | 41 | 1011.3 |
| 20260503192807 | 57 | 278 | 6.0 | 14.0 | 0.00 | 0.00 | 0.00 | 42 | 1011.4 |
| 20260503192305 | 57 | 280 | 5.0 | 12.0 | 0.00 | 0.00 | 0.00 | 43 | 1011.4 |
| 20260503191304 | 56 | 266 | 6.0 | 14.0 | 0.00 | 0.00 | 0.00 | 43 | 1011.5 |
| 20260503190805 | 56 | 270 | 7.0 | 13.0 | 0.00 | 0.00 | 0.00 | 45 | 1011.5 |
| 20260503185805 | 56 | 274 | 10.0 | 15.0 | 0.00 | 0.00 | 0.00 | 43 | 1011.6 |
| 20260503185305 | 56 | 274 | 6.0 | 16.0 | 0.00 | 0.00 | 0.00 | 43 | 1011.6 |
| 20260503183306 | 56 | 263 | 7.0 | 14.0 | 0.00 | 0.00 | 0.00 | 43 | 1011.6 |
| 20260503182805 | 56 | 271 | 7.0 | 14.0 | 0.00 | 0.00 | 0.00 | 44 | 1011.8 |
| 20260503182306 | 56 | 260 | 6.0 | 13.0 | 0.00 | 0.00 | 0.00 | 45 | 1011.7 |
| 20260503181305 | 55 | 279 | 6.0 | 15.0 | 0.00 | 0.00 | 0.00 | 42 | 1011.8 |
| 20260503175305 | 55 | 272 | 6.0 | 13.0 | 0.00 | 0.00 | 0.00 | 43 | 1011.8 |
| 20260503174305 | 55 | 322 | 7.0 | 13.0 | 0.00 | 0.00 | 0.00 | 46 | 1011.7 |
| 20260503170305 | 53 | 251 | 5.0 | 13.0 | 0.00 | 0.00 | 0.00 | 48 | 1011.8 |
| 20260503131305 | 49 | 341 | 7.0 | 13.0 | 0.00 | 0.00 | 0.00 | 61 | 1011.9 |
| 20260503130304 | 48 | 304 | 9.0 | 15.0 | 0.00 | 0.00 | 0.00 | 61 | 1011.8 |
| 20260503110805 | 47 | 291 | 5.0 | 13.0 | 0.00 | 0.00 | 0.00 | 65 | 1011.0 |
| 20260503110304 | 47 | 301 | 3.0 | 9.0 | 0.00 | 0.00 | 0.00 | 65 | 1010.9 |
| 20260503090304 | 48 | 340 | 9.0 | 14.0 | 0.00 | 0.00 | 0.00 | 63 | 1009.1 |
| 20260503081305 | 49 | 327 | 6.0 | 13.0 | 0.00 | 0.00 | 0.00 | 63 | 1008.9 |
| 20260503072804 | 50 | 316 | 5.0 | 12.0 | 0.00 | 0.00 | 0.00 | 60 | 1008.9 |
| 20260503071805 | 50 | 339 | 5.0 | 12.0 | 0.00 | 0.00 | 0.00 | 61 | 1008.9 |
| 20260503070804 | 51 | 308 | 4.0 | 9.0 | 0.00 | 0.00 | 0.00 | 61 | 1008.8 |
| 20260503060305 | 52 | 342 | 5.0 | 14.0 | 0.00 | 0.00 | 0.00 | 61 | 1009.0 |
| 20260503054805 | 52 | 322 | 6.0 | 12.0 | 0.00 | 0.00 | 0.00 | 62 | 1009.0 |
| 20260503054304 | 52 | 356 | 6.0 | 12.0 | 0.00 | 0.00 | 0.00 | 61 | 1009.1 |
| 20260503052306 | 52 | 338 | 5.0 | 12.0 | 0.00 | 0.00 | 0.00 | 62 | 1009.3 |
| 20260503051804 | 52 | 313 | 6.0 | 13.0 | 0.00 | 0.00 | 0.00 | 60 | 1009.3 |
| 20260503050804 | 53 | 324 | 7.0 | 13.0 | 0.00 | 0.00 | 0.00 | 59 | 1009.3 |
| 20260503045804 | 53 | 312 | 5.0 | 10.0 | 0.00 | 0.00 | 0.00 | 60 | 1009.3 |
| 20260503045305 | 53 | 330 | 6.0 | 12.0 | 0.00 | 0.00 | 0.00 | 60 | 1009.5 |
| 20260503044805 | 53 | 295 | 6.0 | 13.0 | 0.00 | 0.00 | 0.00 | 61 | 1009.5 |
| 20260503044304 | 53 | 341 | 6.0 | 13.0 | 0.00 | 0.00 | 0.00 | 59 | 1009.5 |
| 20260503043804 | 53 | 338 | 7.0 | 14.0 | 0.00 | 0.00 | 0.00 | 61 | 1009.4 |
| 20260503042805 | 53 | 339 | 6.0 | 12.0 | 0.00 | 0.00 | 0.00 | 61 | 1009.7 |
| 20260503041805 | 53 | 313 | 5.0 | 12.0 | 0.00 | 0.00 | 0.00 | 61 | 1009.7 |
| 20260503041305 | 53 | 312 | 5.0 | 13.0 | 0.00 | 0.00 | 0.00 | 62 | 1009.8 |
| 20260503035804 | 53 | 298 | 5.0 | 9.0 | 0.00 | 0.00 | 0.00 | 65 | 1009.8 |
| 20260503033305 | 52 | 309 | 3.0 | 7.0 | 0.00 | 0.00 | 0.00 | 74 | 1009.7 |
| 20260503032304 | 51 | 288 | 3.0 | 7.0 | 0.00 | 0.00 | 0.00 | 81 | 1009.7 |
| 20260503031804 | 51 | 283 | 3.0 | 6.0 | 0.00 | 0.00 | 0.00 | 83 | 1009.8 |
| 20260503031304 | 51 | 268 | 4.0 | 7.0 | 0.00 | 0.00 | 0.00 | 84 | 1009.8 |
| 20260503030804 | 51 | 267 | 4.0 | 7.0 | 0.00 | 0.00 | 0.00 | 86 | 1010.0 |
| 20260503025305 | 51 | 258 | 5.0 | 7.0 | 0.00 | 0.00 | 0.00 | 86 | 1010.0 |
| 20260503024304 | 51 | 259 | 7.0 | 10.0 | 0.00 | 0.00 | 0.00 | 86 | 1010.1 |
| 20260503023304 | 51 | 257 | 4.0 | 7.0 | 0.00 | 0.00 | 0.00 | 85 | 1009.8 |
| 20260503022804 | 52 | 269 | 3.0 | 6.0 | 0.00 | 0.00 | 0.00 | 85 | 1009.8 |
| 20260503022305 | 52 | 250 | 5.0 | 7.0 | 0.00 | 0.00 | 0.00 | 84 | 1009.9 |
| 20260503021305 | 52 | 267 | 3.0 | 6.0 | 0.00 | 0.00 | 0.00 | 84 | 1009.9 |